Content
SEND FEEDBACK

Daily
Averages
Monthly
Summary
United States of America

CRARY, NORTH DAKOTA


Home > North America > United States > North Dakota
Elevation: 1463 feet     Latitude: 48 07N     Longitude: 098 52W

WEATHER
 
SELECT A DAY
Number of Records: 470,605;   Date Range: 1/1/95 - 11/26/14
 
SHARE

PRINT THIS DATA

[ ← Previous Day ]
WEATHER ALMANAC - FEBRUARY 13, 2013
[ Next Day → ]
[ °C ]   °F
Weather ElementAverageHighLow
Temperature22.8 °F26.6 °F (10:15 am)19.4 °F (1:35 am)
Dewpoint21 °F26.6 °F (1:35 pm)17.6 °F (1:35 am)
Humidity93 %100 % (2:35 am)86 % (12:35 am)
Barometer29.66 in29.78 in (11:15 pm)29.59 in (9:35 am)
Wind Speed6.5 mph12.7 mph (3:15 am)
Weather ElementAverage
Visibility8 mi
Wind DirectionSSW (188.3 °)

Weather ElementTotal
Precipitation---
Heating Degree Days42 (Base 65)
Averaged from 69 records on February 13, 2013
WEATHER CONDITIONS BREAKOUT
WIND DIRECTION BREAKOUT
WEATHER BY HOUR - FEBRUARY 13, 2013
[ °C ]   °F
Local TimeTemperatureDewpointHumidityBarometerVisibilityWind DirectionWind SpeedGust SpeedPrecipitationEventsConditions
12:35 AM23.0 °F19.4 °F86 %29.70 in10.0 miWest (270°)10.4 mphClear
12:55 AM21.2 °F19.4 °F93 %29.70 in10.0 miWest (270°)9.2 mphClear
1:15 AM21.2 °F19.4 °F93 %29.70 in10.0 miWest (270°)11.5 mphClear
1:35 AM19.4 °F17.6 °F93 %29.70 in10.0 miWest (270°)9.2 mphClear
1:55 AM19.4 °F17.6 °F93 %29.69 in10.0 miWest (260°)10.4 mphClear
2:15 AM19.4 °F17.6 °F93 %29.69 in10.0 miWest (260°)9.2 mphClear
2:35 AM19.4 °F19.4 °F100 %29.69 in10.0 miWSW (250°)10.4 mphClear
2:55 AM19.4 °F17.6 °F93 %29.69 in10.0 miWest (260°)10.4 mphClear
3:15 AM19.4 °F19.4 °F100 %29.68 in10.0 miWest (260°)12.7 mphClear
3:55 AM21.2 °F21.2 °F100 %29.66 in10.0 miWSW (250°)8.1 mphClear
4:15 AM21.2 °F19.4 °F93 %29.65 in10.0 miWest (260°)9.2 mphClear
4:35 AM21.2 °F19.4 °F93 %29.65 in10.0 miWest (270°)10.4 mphClear
4:55 AM21.2 °F19.4 °F93 %29.65 in10.0 miWest (270°)9.2 mphClear
5:15 AM21.2 °F19.4 °F93 %29.65 in10.0 miWest (280°)8.1 mphClear
5:35 AM21.2 °F19.4 °F93 %29.64 in10.0 miWest (280°)8.1 mphScattered Clouds
5:55 AM21.2 °F21.2 °F100 %29.64 in10.0 miWNW (290°)3.5 mphMostly Cloudy
6:15 AM21.2 °F19.4 °F93 %29.63 in10.0 miCalmOvercast
6:35 AM21.2 °F21.2 °F100 %29.63 in10.0 miWSW (240°)4.6 mphScattered Clouds
6:55 AM23.0 °F19.4 °F86 %29.62 in10.0 miWSW (250°)4.6 mphMostly Cloudy
7:15 AM23.0 °F21.2 °F93 %29.62 in5.0 miSW (230°)3.5 mphMostly Cloudy
7:35 AM21.2 °F19.4 °F93 %29.61 in3.0 miWSW (240°)3.5 mphPartly Cloudy
7:55 AM21.2 °F19.4 °F93 %29.61 in10.0 miWSW (250°)4.6 mphMostly Cloudy
8:15 AM21.2 °F19.4 °F93 %29.61 in10.0 miWSW (250°)4.6 mphMostly Cloudy
8:35 AM23.0 °F21.2 °F93 %29.61 in10.0 miWSW (240°)4.6 mphMostly Cloudy
8:55 AM24.8 °F21.2 °F86 %29.61 in10.0 miCalmMostly Cloudy
9:15 AM24.8 °F21.2 °F86 %29.60 in10.0 miCalmOvercast
9:35 AM24.8 °F21.2 °F86 %29.59 in10.0 miCalmOvercast
9:55 AM24.8 °F23.0 °F93 %29.59 in10.0 miSSW (210°)3.5 mphOvercast
10:15 AM26.6 °F23.0 °F86 %29.59 in10.0 miSSW (210°)3.5 mphOvercast
10:35 AM26.6 °F23.0 °F86 %29.59 in10.0 miSW (230°)5.8 mphOvercast
10:55 AM26.6 °F23.0 °F86 %29.60 in10.0 miCalmOvercast
11:15 AM26.6 °F23.0 °F86 %29.59 in8.0 miCalmOvercast
11:35 AM26.6 °F24.8 °F93 %29.60 in9.0 miCalmOvercast
11:55 AM26.6 °F23.0 °F86 %29.59 in10.0 miCalmOvercast
12:15 PM26.6 °F24.8 °F93 %29.59 in8.0 miNorth (360°)4.6 mphOvercast
12:55 PM26.6 °F24.8 °F93 %29.59 in1.0 miNNW (330°)5.8 mphOvercast
1:15 PM26.6 °F24.8 °F93 %29.59 in1.0 miNorth (360°)6.9 mphOvercast
1:35 PM26.6 °F26.6 °F100 %29.60 in1.0 miNorth (10°)12.7 mphOvercast
1:55 PM26.6 °F24.8 °F93 %29.59 in1.5 miNNE (20°)9.2 mphOvercast
2:15 PM26.6 °F24.8 °F93 %29.60 in10.0 miNNE (20°)10.4 mphOvercast
2:35 PM26.6 °F23.0 °F86 %29.61 in5.0 miNNE (30°)10.4 mphOvercast
2:55 PM26.6 °F24.8 °F93 %29.61 in2.0 miNNE (20°)9.2 mphOvercast
3:15 PM24.8 °F24.8 °F100 %29.61 in2.5 miNorth (10°)10.4 mphOvercast
3:35 PM24.8 °F24.8 °F100 %29.62 in1.0 miNorth (10°)10.4 mphOvercast
3:55 PM24.8 °F23.0 °F93 %29.63 in1.2 miNorth (10°)11.5 mphOvercast
4:15 PM24.8 °F23.0 °F93 %29.64 in1.5 miNNE (20°)9.2 mphOvercast
4:35 PM26.6 °F24.8 °F93 %29.64 in3.0 miNNE (20°)6.9 mphOvercast
4:55 PM24.8 °F24.8 °F100 %29.65 in8.0 miNorth (360°)8.1 mphMostly Cloudy
5:15 PM24.8 °F23.0 °F93 %29.66 in10.0 miNorth (360°)6.9 mphMostly Cloudy
5:35 PM24.8 °F23.0 °F93 %29.67 in10.0 miNorth (10°)10.4 mphOvercast
5:55 PM23.0 °F23.0 °F100 %29.68 in10.0 miNorth (10°)9.2 mphOvercast
6:15 PM24.8 °F21.2 °F86 %29.69 in10.0 miNorth (360°)11.5 mphOvercast
6:35 PM24.8 °F21.2 °F86 %29.70 in10.0 miNorth (350°)10.4 mphOvercast
6:55 PM24.8 °F21.2 °F86 %29.71 in10.0 miNorth (350°)10.4 mphOvercast
7:15 PM23.0 °F19.4 °F86 %29.72 in10.0 miNorth (360°)10.4 mphMostly Cloudy
7:35 PM21.2 °F19.4 °F93 %29.72 in10.0 miNorth (360°)9.2 mphScattered Clouds
7:55 PM19.4 °F17.6 °F93 %29.73 in10.0 miNorth (360°)6.9 mphMostly Cloudy
8:15 PM19.4 °F17.6 °F93 %29.74 in10.0 miCalmOvercast
8:35 PM21.2 °F19.4 °F93 %29.74 in10.0 miNorth (10°)3.5 mphOvercast
8:55 PM19.4 °F19.4 °F100 %29.74 in10.0 miNNW (330°)3.5 mphOvercast
9:15 PM19.4 °F19.4 °F100 %29.75 in10.0 miWNW (300°)6.9 mphMostly Cloudy
9:35 PM19.4 °F17.6 °F93 %29.76 in10.0 miWNW (300°)6.9 mphOvercast
9:55 PM19.4 °F19.4 °F100 %29.76 in8.0 miNNW (330°)6.9 mphOvercast
10:15 PM19.4 °F17.6 °F93 %29.76 in5.0 miNNW (330°)5.8 mphOvercast
10:35 PM19.4 °F19.4 °F100 %29.76 in5.0 miNNW (330°)4.6 mphOvercast
10:55 PM19.4 °F19.4 °F100 %29.77 in4.0 miNNW (340°)4.6 mphOvercast
11:15 PM19.4 °F17.6 °F93 %29.78 in8.0 miCalmOvercast
11:35 PM19.4 °F17.6 °F93 %29.77 in5.0 miCalmOvercast
11:55 PM19.4 °F17.6 °F93 %29.78 in4.0 miCalmOvercast
Hourly data recorded from KDVL, located miles away from Crary, North Dakota







STORIES FROM OUR PARTNERS